{"data":{"norad_id":68893,"epoch":"2026-05-22T12:09:50.638176Z","epoch_age_seconds":287572,"freshness":"STALE","line1":"1 68893U 26096A   26142.50683609 -.00000123  00000+0  00000+0 0  9994","line2":"2 68893   2.3429 280.4148 1281813 181.0731 252.6119  1.26078027   300","mean_motion":1.26078027,"eccentricity":0.1281813,"inclination_deg":2.3429,"raan_deg":280.4148,"arg_perigee_deg":181.0731,"mean_anomaly_deg":252.6119,"bstar":0,"rev_number":30,"period_min":1142.1498529637,"perigee_km":25176.88002749,"apogee_km":34455.788828381,"semimajor_km":36194.471427935,"source":"CELESTRAK","updated_at":"2026-05-25T13:38:08.651896Z"}}